• en Suisse
  • Liste des pays
  • À 7 jours
  • Température de l'eau
  • Carte satellitaire
  • Carte météo
  • Widgets météo
  • user-avatar
    Se connecter

    Météo par heure à Fagernes

    Ce jour, 17 Novembre, Vendredi

    Heure Température Précipitation Vent Pression Humidité
    00:00 -1°C° 0,1 mm 5 m/s 717 mmHg 81%
    01:00 -1°C° 0 mm 4 m/s 717 mmHg 80%
    02:00 -2°C° 0 mm 4 m/s 717 mmHg 80%
    03:00 -2°C° 0 mm 4 m/s 718 mmHg 81%
    04:00 -2°C° 0 mm 4 m/s 718 mmHg 82%
    05:00 -2°C° 0,2 mm 4 m/s 718 mmHg 83%
    06:00 -2°C° 0,2 mm 4 m/s 717 mmHg 84%
    07:00 -2°C° 0 mm 4 m/s 717 mmHg 86%
    08:00 -1°C° 0,3 mm 4 m/s 717 mmHg 85%
    09:00 0°C° 0,3 mm 5 m/s 717 mmHg 84%
    10:00 -1°C° 0,3 mm 6 m/s 717 mmHg 83%
    11:00 +1°C° 0,2 mm 5 m/s 717 mmHg 82%
    12:00 +1°C° 0,2 mm 5 m/s 716 mmHg 81%
    13:00 +1°C° 0 mm 4 m/s 716 mmHg 80%
    14:00 0°C° 0,1 mm 4 m/s 716 mmHg 81%
    15:00 0°C° 0,1 mm 4 m/s 716 mmHg 83%
    16:00 0°C° 0,1 mm 3 m/s 716 mmHg 84%
    17:00 0°C° 0,2 mm 3 m/s 715 mmHg 85%
    18:00 0°C° 0,2 mm 3 m/s 715 mmHg 87%
    19:00 0°C° 0,2 mm 3 m/s 715 mmHg 88%
    20:00 0°C° 0,3 mm 3 m/s 714 mmHg 89%
    21:00 0°C° 0,3 mm 3 m/s 714 mmHg 90%
    22:00 +1°C° 0,3 mm 2 m/s 713 mmHg 91%
    23:00 -1°C° 0,2 mm 2 m/s 713 mmHg 90%

    Demain, 18 Novembre, Samedi

    Heure Température Précipitation Vent Pression Humidité
    00:00 -1°C° 0,2 mm 2 m/s 713 mmHg 90%
    01:00 -1°C° 0,2 mm 2 m/s 712 mmHg 89%
    02:00 -2°C° 0,1 mm 2 m/s 712 mmHg 89%
    03:00 -3°C° 0,1 mm 2 m/s 712 mmHg 88%
    04:00 -3°C° 0,1 mm 2 m/s 712 mmHg 88%
    05:00 -4°C° 0 mm 2 m/s 711 mmHg 88%
    06:00 -4°C° 0 mm 2 m/s 711 mmHg 88%
    07:00 -4°C° 0 mm 2 m/s 710 mmHg 88%
    08:00 -4°C° 0,1 mm 2 m/s 710 mmHg 88%
    09:00 -5°C° 0,1 mm 3 m/s 709 mmHg 88%
    10:00 -4°C° 0,1 mm 3 m/s 708 mmHg 87%
    11:00 -2°C° 0,3 mm 3 m/s 708 mmHg 87%
    12:00 -1°C° 0,3 mm 3 m/s 708 mmHg 86%
    13:00 0°C° 0,3 mm 3 m/s 707 mmHg 85%
    14:00 -1°C° 0 mm 3 m/s 707 mmHg 87%
    15:00 -2°C° 0 mm 2 m/s 707 mmHg 89%
    16:00 -3°C° 0 mm 2 m/s 706 mmHg 90%
    17:00 -3°C° 0,2 mm 2 m/s 707 mmHg 91%
    18:00 -2°C° 0,2 mm 2 m/s 707 mmHg 92%
    19:00 -2°C° 0,2 mm 2 m/s 707 mmHg 93%
    20:00 -3°C° 0,1 mm 2 m/s 708 mmHg 92%
    21:00 -3°C° 0,1 mm 2 m/s 709 mmHg 92%
    22:00 -5°C° 0,1 mm 3 m/s 710 mmHg 91%
    23:00 -5°C° 0 mm 3 m/s 711 mmHg 89%

    Après-demain, 19 Novembre, Dimanche

    Heure Température Précipitation Vent Pression Humidité
    00:00 -6°C° 0 mm 3 m/s 712 mmHg 88%
    01:00 -7°C° 0 mm 3 m/s 713 mmHg 86%
    02:00 -7°C° 0 mm 3 m/s 714 mmHg 85%
    03:00 -7°C° 0 mm 3 m/s 715 mmHg 84%
    04:00 -7°C° 0 mm 3 m/s 715 mmHg 83%
    05:00 -7°C° 0 mm 3 m/s 716 mmHg 82%
    06:00 -7°C° 0 mm 3 m/s 716 mmHg 82%
    07:00 -7°C° 0 mm 3 m/s 716 mmHg 81%
    08:00 -6°C° 0 mm 3 m/s 717 mmHg 81%
    09:00 -6°C° 0 mm 3 m/s 717 mmHg 81%
    10:00 -4°C° 0 mm 2 m/s 717 mmHg 81%
    11:00 -4°C° 0 mm 3 m/s 718 mmHg 81%
    12:00 -2°C° 0 mm 3 m/s 718 mmHg 81%
    13:00 -2°C° 0 mm 3 m/s 718 mmHg 81%
    14:00 -2°C° 0 mm 3 m/s 718 mmHg 82%
    15:00 -4°C° 0 mm 3 m/s 718 mmHg 84%
    16:00 -5°C° 0 mm 3 m/s 718 mmHg 86%
    17:00 -5°C° 0 mm 3 m/s 719 mmHg 86%
    18:00 -5°C° 0 mm 3 m/s 719 mmHg 86%
    19:00 -5°C° 0 mm 3 m/s 719 mmHg 87%
    20:00 -4°C° 0 mm 2 m/s 719 mmHg 87%
    21:00 -5°C° 0 mm 2 m/s 719 mmHg 87%
    22:00 -5°C° 0 mm 2 m/s 720 mmHg 87%
    23:00 -5°C° 0 mm 2 m/s 720 mmHg 87%

    20 Novembre, Lundi

    Heure Température Précipitation Vent Pression Humidité
    00:00 -5°C° 0 mm 2 m/s 720 mmHg 87%
    01:00 -5°C° 0 mm 2 m/s 720 mmHg 87%
    02:00 -6°C° 0 mm 2 m/s 720 mmHg 87%
    03:00 -6°C° 0 mm 2 m/s 720 mmHg 88%
    04:00 -6°C° 0 mm 2 m/s 720 mmHg 88%
    05:00 -7°C° 0 mm 2 m/s 720 mmHg 88%
    06:00 -7°C° 0 mm 2 m/s 720 mmHg 87%
    07:00 -8°C° 0 mm 2 m/s 720 mmHg 87%
    08:00 -7°C° 0 mm 2 m/s 720 mmHg 86%
    09:00 -7°C° 0 mm 2 m/s 720 mmHg 85%
    10:00 -6°C° 0 mm 1 m/s 720 mmHg 84%
    11:00 -6°C° 0 mm 1 m/s 720 mmHg 82%
    12:00 -4°C° 0 mm 1 m/s 720 mmHg 80%
    13:00 -3°C° 0 mm 1 m/s 720 mmHg 79%
    14:00 -4°C° 0 mm 1 m/s 720 mmHg 79%
    15:00 -6°C° 0 mm 1 m/s 719 mmHg 79%
    16:00 -7°C° 0 mm 1 m/s 719 mmHg 79%
    17:00 -7°C° 0 mm 1 m/s 719 mmHg 78%
    18:00 -8°C° 0 mm 1 m/s 719 mmHg 77%
    19:00 -8°C° 0 mm 1 m/s 720 mmHg 76%
    20:00 -8°C° 0 mm 1 m/s 720 mmHg 75%
    21:00 -8°C° 0 mm 1 m/s 720 mmHg 74%
    22:00 -8°C° 0 mm 1 m/s 720 mmHg 74%
    23:00 -9°C° 0 mm 1 m/s 720 mmHg 73%

    21 Novembre, Mardi

    Heure Température Précipitation Vent Pression Humidité
    00:00 -9°C° 0 mm 1 m/s 720 mmHg 72%
    01:00 -9°C° 0 mm 1 m/s 720 mmHg 72%
    02:00 -9°C° 0 mm 1 m/s 720 mmHg 72%
    03:00 -9°C° 0 mm 1 m/s 720 mmHg 72%
    04:00 -10°C° 0 mm 1 m/s 720 mmHg 71%
    05:00 -10°C° 0 mm 1 m/s 720 mmHg 72%
    06:00 -10°C° 0 mm 1 m/s 720 mmHg 72%
    07:00 -10°C° 0 mm 1 m/s 720 mmHg 73%
    08:00 -10°C° 0 mm 1 m/s 721 mmHg 73%
    09:00 -10°C° 0 mm 1 m/s 721 mmHg 73%
    10:00 -10°C° 0 mm 1 m/s 721 mmHg 74%
    11:00 -9°C° 0 mm 1 m/s 721 mmHg 73%
    12:00 -8°C° 0 mm 1 m/s 721 mmHg 73%
    13:00 -8°C° 0 mm 1 m/s 721 mmHg 73%
    14:00 -9°C° 0 mm 1 m/s 721 mmHg 74%
    15:00 -9°C° 0 mm 1 m/s 721 mmHg 76%
    16:00 -10°C° 0 mm 1 m/s 720 mmHg 77%
    17:00 -11°C° 0 mm 1 m/s 721 mmHg 78%
    18:00 -11°C° 0 mm 1 m/s 721 mmHg 78%
    19:00 -11°C° 0 mm 1 m/s 721 mmHg 78%
    20:00 -11°C° 0 mm 1 m/s 721 mmHg 79%
    21:00 -11°C° 0 mm 1 m/s 721 mmHg 79%
    22:00 -12°C° 0 mm 1 m/s 721 mmHg 80%
    23:00 -12°C° 0 mm 1 m/s 721 mmHg 81%

    22 Novembre, Mercredi

    Heure Température Précipitation Vent Pression Humidité
    00:00 -12°C° 0 mm 1 m/s 721 mmHg 81%
    01:00 -12°C° 0 mm 1 m/s 721 mmHg 82%
    02:00 -12°C° 0 mm 1 m/s 721 mmHg 83%
    03:00 -12°C° 0 mm 1 m/s 721 mmHg 84%
    04:00 -12°C° 0 mm 1 m/s 722 mmHg 85%
    05:00 -12°C° 0 mm 1 m/s 722 mmHg 86%
    06:00 -11°C° 0 mm 1 m/s 722 mmHg 87%
    07:00 -11°C° 0 mm 1 m/s 722 mmHg 88%
    08:00 -11°C° 0 mm 1 m/s 722 mmHg 88%
    09:00 -10°C° 0 mm 1 m/s 722 mmHg 89%
    10:00 -9°C° 0 mm 1 m/s 723 mmHg 89%
    11:00 -9°C° 0 mm 1 m/s 723 mmHg 89%
    12:00 -8°C° 0 mm 1 m/s 723 mmHg 90%
    13:00 -7°C° 0 mm 0 m/s 723 mmHg 90%
    14:00 -7°C° 0,1 mm 1 m/s 723 mmHg 92%
    15:00 -8°C° 0,1 mm 1 m/s 723 mmHg 93%
    16:00 -8°C° 0,1 mm 1 m/s 722 mmHg 95%
    17:00 -7°C° 0,2 mm 1 m/s 722 mmHg 95%
    18:00 -7°C° 0,2 mm 1 m/s 722 mmHg 96%
    19:00 -7°C° 0,2 mm 1 m/s 722 mmHg 96%
    20:00 -6°C° 0,6 mm 1 m/s 722 mmHg 96%
    21:00 -6°C° 0,6 mm 1 m/s 721 mmHg 97%
    22:00 -6°C° 0,6 mm 1 m/s 721 mmHg 97%
    23:00 -6°C° 0,9 mm 2 m/s 720 mmHg 97%
    Voir plus